Time,TemperatureF,DewpointF,PressureIn,WindDirection,WindDirectionDegrees,WindSpeedMPH,WindSpeedGustMPH,Humidity,HourlyPrecipIn,Conditions,Clouds,dailyrainin,SoftwareType,DateUTC
2013-02-17 00:00:00,22.4,9.8,-100.00,NNE,23,0.5,2.5,54,-99.99,,,-99.99,WSDL version 420,2013-02-17 05:00:00,
2013-02-17 00:02:00,22.3,9.7,29.06,NNE,23,0.0,1.3,54,-99.99,,,-99.99,WSDL version 420,2013-02-17 05:02:00,
2013-02-17 00:06:00,22.5,9.8,29.06,NNE,23,0.4,1.3,54,-99.99,,,-99.99,WSDL version 420,2013-02-17 05:06:00,
2013-02-17 00:15:00,22.5,9.8,29.03,NE,45,1.4,2.7,54,-99.99,,,-99.99,WSDL version 420,2013-02-17 05:15:00,
2013-02-17 00:21:00,22.6,10.0,-100.00,NNE,30,1.3,2.7,54,-99.99,,,-99.99,WSDL version 420,2013-02-17 05:21:00,
2013-02-17 00:32:00,22.5,9.8,29.06,NNE,23,1.2,2.9,54,-99.99,,,-99.99,WSDL version 420,2013-02-17 05:32:00,
2013-02-17 00:37:00,22.6,9.9,29.06,NNE,23,1.1,2.9,54,-99.99,,,-99.99,WSDL version 420,2013-02-17 05:37:00,
2013-02-17 00:45:00,22.6,10.0,29.03,NNE,23,0.0,2.7,54,-99.99,,,-99.99,WSDL version 420,2013-02-17 05:45:00,
2013-02-17 00:51:00,22.5,9.7,29.03,NE,41,1.2,4.3,53,-99.99,,,-99.99,WSDL version 420,2013-02-17 05:51:00,
2013-02-17 00:57:00,22.3,9.3,29.03,NE,45,1.8,3.6,53,-99.99,,,-99.99,WSDL version 420,2013-02-17 05:57:00,
2013-02-17 01:03:00,22.3,9.3,29.03,NNE,32,1.3,3.6,53,-99.99,,,-99.99,WSDL version 420,2013-02-17 06:03:00,
2013-02-17 01:10:00,22.1,8.8,29.03,ENE,60,1.1,3.8,52,-99.99,,,-99.99,WSDL version 420,2013-02-17 06:10:00,
2013-02-17 01:15:00,22.1,9.1,29.00,ENE,58,0.7,3.8,53,-99.99,,,-99.99,WSDL version 420,2013-02-17 06:15:00,
2013-02-17 01:21:00,21.9,8.8,29.00,ENE,59,1.6,3.1,52,-99.99,,,-99.99,WSDL version 420,2013-02-17 06:21:00,
2013-02-17 01:27:00,21.9,8.6,29.00,NE,48,2.1,2.9,52,-99.99,,,-99.99,WSDL version 420,2013-02-17 06:27:00,
2013-02-17 01:33:00,21.9,8.4,29.03,ENE,68,1.3,4.5,51,-99.99,,,-99.99,WSDL version 420,2013-02-17 06:33:00,
2013-02-17 01:38:00,21.7,8.0,29.03,ENE,68,2.0,3.6,51,-99.99,,,-99.99,WSDL version 420,2013-02-17 06:38:00,
2013-02-17 01:44:00,21.7,8.0,29.03,ENE,68,1.0,3.1,51,-99.99,,,-99.99,WSDL version 420,2013-02-17 06:44:00,
2013-02-17 01:52:00,21.6,8.0,29.03,ENE,68,1.9,3.1,51,-99.99,,,-99.99,WSDL version 420,2013-02-17 06:52:00,
2013-02-17 01:59:00,21.4,7.7,29.03,NNE,30,1.1,3.1,51,-99.99,,,-99.99,WSDL version 420,2013-02-17 06:59:00,
2013-02-17 02:05:00,21.4,7.7,29.03,NNE,23,1.2,2.7,51,-99.99,,,-99.99,WSDL version 420,2013-02-17 07:05:00,
2013-02-17 02:11:00,21.4,7.6,29.03,NE,39,1.8,2.9,51,-99.99,,,-99.99,WSDL version 420,2013-02-17 07:11:00,
2013-02-17 02:17:00,21.4,7.5,29.03,ENE,68,0.4,3.1,50,-99.99,,,-99.99,WSDL version 420,2013-02-17 07:17:00,
2013-02-17 02:23:00,21.3,7.2,29.03,NNE,23,1.7,3.4,50,-99.99,,,-99.99,WSDL version 420,2013-02-17 07:23:00,
2013-02-17 02:30:00,21.2,7.1,29.03,NNE,23,1.1,3.4,50,-99.99,,,-99.99,WSDL version 420,2013-02-17 07:30:00,
2013-02-17 02:36:00,21.1,7.1,29.03,NNE,23,1.8,2.7,50,-99.99,,,-99.99,WSDL version 420,2013-02-17 07:36:00,
2013-02-17 02:42:00,21.0,6.9,29.03,NNE,23,1.2,2.7,49,-99.99,,,-99.99,WSDL version 420,2013-02-17 07:42:00,
2013-02-17 02:47:00,20.9,6.5,29.03,NNE,23,0.9,2.2,49,-99.99,,,-99.99,WSDL version 420,2013-02-17 07:47:00,
2013-02-17 02:53:00,20.8,6.3,29.03,North,360,1.2,2.0,49,-99.99,,,-99.99,WSDL version 420,2013-02-17 07:53:00,
2013-02-17 02:59:00,20.6,6.1,-100.00,North,360,1.1,2.5,49,-99.99,,,-99.99,WSDL version 420,2013-02-17 07:59:00,
2013-02-17 03:08:00,20.5,6.1,29.03,North,360,0.0,3.4,49,-99.99,,,-99.99,WSDL version 420,2013-02-17 08:08:00,
2013-02-17 03:17:00,20.5,6.1,29.03,North,360,1.8,2.7,49,-99.99,,,-99.99,WSDL version 420,2013-02-17 08:17:00,
2013-02-17 03:23:00,20.5,6.1,29.03,NNE,23,1.2,3.1,49,-99.99,,,-99.99,WSDL version 420,2013-02-17 08:23:00,
2013-02-17 03:29:00,20.7,6.2,29.03,North,360,1.1,3.1,49,-99.99,,,-99.99,WSDL version 420,2013-02-17 08:29:00,
2013-02-17 03:35:00,20.7,6.4,29.03,North,360,0.8,2.2,50,-99.99,,,-99.99,WSDL version 420,2013-02-17 08:35:00,
2013-02-17 03:41:00,20.7,6.2,29.03,NNE,23,1.8,2.9,49,-99.99,,,-99.99,WSDL version 420,2013-02-17 08:41:00,
2013-02-17 03:46:00,20.7,6.2,29.03,North,6,1.3,3.4,49,-99.99,,,-99.99,WSDL version 420,2013-02-17 08:46:00,
2013-02-17 03:52:00,20.7,6.2,29.03,North,360,0.6,3.4,49,-99.99,,,-99.99,WSDL version 420,2013-02-17 08:52:00,
2013-02-17 03:58:00,20.7,6.3,29.03,NNE,23,0.8,3.4,49,-99.99,,,-99.99,WSDL version 420,2013-02-17 08:58:00,
2013-02-17 04:05:00,20.7,6.2,-100.00,NNE,13,2.5,4.0,49,-99.99,,,-99.99,WSDL version 420,2013-02-17 09:05:00,
2013-02-17 04:11:00,20.5,6.3,-100.00,ENE,68,2.8,4.7,50,-99.99,,,-99.99,WSDL version 420,2013-02-17 09:11:00,
2013-02-17 04:17:00,20.5,6.7,29.03,NE,42,2.9,4.7,51,-99.99,,,-99.99,WSDL version 420,2013-02-17 09:17:00,
2013-02-17 04:25:00,20.3,6.9,29.03,NE,45,1.4,4.3,52,-99.99,,,-99.99,WSDL version 420,2013-02-17 09:25:00,
2013-02-17 04:33:00,20.2,7.2,29.00,NNE,23,1.9,3.6,53,-99.99,,,-99.99,WSDL version 420,2013-02-17 09:33:00,
2013-02-17 04:38:00,19.9,7.1,29.00,NNE,23,1.9,3.6,53,-99.99,,,-99.99,WSDL version 420,2013-02-17 09:38:00,
2013-02-17 04:44:00,19.8,6.9,29.03,North,360,1.0,2.7,53,-99.99,,,-99.99,WSDL version 420,2013-02-17 09:44:00,
2013-02-17 04:50:00,19.8,6.9,29.03,North,360,2.0,3.6,53,-99.99,,,-99.99,WSDL version 420,2013-02-17 09:50:00,
2013-02-17 05:01:00,19.6,7.5,29.00,NNE,15,1.9,3.4,55,-99.99,,,-99.99,WSDL version 420,2013-02-17 10:01:00,
2013-02-17 05:09:00,19.7,8.3,29.00,NNE,23,0.0,2.9,57,-99.99,,,-99.99,WSDL version 420,2013-02-17 10:09:00,
2013-02-17 05:16:00,19.6,8.0,29.03,North,3,1.3,3.1,56,-99.99,,,-99.99,WSDL version 420,2013-02-17 10:16:00,
2013-02-17 05:22:00,19.5,8.1,29.03,NNE,23,2.1,3.6,57,-99.99,,,-99.99,WSDL version 420,2013-02-17 10:22:00,
2013-02-17 05:28:00,19.4,8.0,29.03,North,360,2.1,3.1,57,-99.99,,,-99.99,WSDL version 420,2013-02-17 10:28:00,
2013-02-17 05:35:00,19.4,8.4,29.03,North,356,2.1,4.3,58,-99.99,,,-99.99,WSDL version 420,2013-02-17 10:35:00,
2013-02-17 05:41:00,19.4,8.4,29.03,NE,45,2.5,3.6,58,-99.99,,,-99.99,WSDL version 420,2013-02-17 10:41:00,
2013-02-17 05:47:00,19.3,8.2,29.00,NNE,23,1.8,4.0,58,-99.99,,,-99.99,WSDL version 420,2013-02-17 10:47:00,
2013-02-17 05:53:00,19.2,8.4,29.00,NNE,15,2.5,5.6,59,-99.99,,,-99.99,WSDL version 420,2013-02-17 10:53:00,
2013-02-17 05:59:00,19.0,8.4,29.03,North,360,2.2,5.6,59,-99.99,,,-99.99,WSDL version 420,2013-02-17 10:59:00,
2013-02-17 06:05:00,19.0,8.7,29.03,NNE,15,2.2,6.3,60,-99.99,,,-99.99,WSDL version 420,2013-02-17 11:05:00,
2013-02-17 06:10:00,19.1,8.9,29.03,NE,42,1.6,3.4,61,-99.99,,,-99.99,WSDL version 420,2013-02-17 11:10:00,
2013-02-17 06:16:00,19.0,9.0,29.00,North,4,2.7,4.9,61,-99.99,,,-99.99,WSDL version 420,2013-02-17 11:16:00,
2013-02-17 06:24:00,18.7,9.0,29.00,NNE,23,2.7,4.9,62,-99.99,,,-99.99,WSDL version 420,2013-02-17 11:24:00,
2013-02-17 06:30:00,18.7,8.7,29.00,NNE,23,2.0,4.0,61,-99.99,,,-99.99,WSDL version 420,2013-02-17 11:30:00,
2013-02-17 06:36:00,18.5,8.5,29.00,NNE,19,1.6,3.4,61,-99.99,,,-99.99,WSDL version 420,2013-02-17 11:36:00,
2013-02-17 06:42:00,18.2,8.2,29.00,North,360,1.6,3.6,61,-99.99,,,-99.99,WSDL version 420,2013-02-17 11:42:00,
2013-02-17 06:48:00,17.7,7.7,29.03,North,6,2.9,5.6,61,-99.99,,,-99.99,WSDL version 420,2013-02-17 11:48:00,
2013-02-17 07:00:00,17.6,8.0,-100.00,NNE,23,3.0,4.7,62,-99.99,,,-99.99,WSDL version 420,2013-02-17 12:00:00,
2013-02-17 07:05:00,17.6,8.0,29.06,North,357,2.8,5.4,62,-99.99,,,-99.99,WSDL version 420,2013-02-17 12:05:00,
2013-02-17 07:11:00,17.6,8.0,29.06,North,360,3.3,5.4,62,-99.99,,,-99.99,WSDL version 420,2013-02-17 12:11:00,
2013-02-17 07:21:00,17.8,8.1,29.03,North,11,3.6,6.9,62,-99.99,,,-99.99,WSDL version 420,2013-02-17 12:21:00,
2013-02-17 07:27:00,17.8,8.1,29.03,North,8,2.3,6.9,62,-99.99,,,-99.99,WSDL version 420,2013-02-17 12:27:00,
2013-02-17 07:33:00,17.8,8.2,29.06,NNE,23,1.9,4.9,62,-99.99,,,-99.99,WSDL version 420,2013-02-17 12:33:00,
2013-02-17 07:38:00,18.1,8.5,29.06,North,4,2.3,4.0,62,-99.99,,,-99.99,WSDL version 420,2013-02-17 12:38:00,
2013-02-17 07:44:00,18.0,8.3,29.06,North,360,1.9,5.6,62,-99.99,,,-99.99,WSDL version 420,2013-02-17 12:44:00,
2013-02-17 07:50:00,18.0,8.3,29.06,NNW,341,3.2,5.8,62,-99.99,,,-99.99,WSDL version 420,2013-02-17 12:50:00,
2013-02-17 08:00:00,18.1,8.5,29.06,NE,39,3.4,5.4,62,-99.99,,,-99.99,WSDL version 420,2013-02-17 13:00:00,
2013-02-17 08:06:00,18.3,8.6,-100.00,NNE,19,2.3,5.4,62,-99.99,,,-99.99,WSDL version 420,2013-02-17 13:06:00,
2013-02-17 08:12:00,18.5,8.8,29.06,North,360,3.2,5.4,62,-99.99,,,-99.99,WSDL version 420,2013-02-17 13:12:00,
2013-02-17 08:19:00,18.5,8.8,-100.00,North,11,2.9,5.8,62,-99.99,,,-99.99,WSDL version 420,2013-02-17 13:19:00,
2013-02-17 08:25:00,18.6,9.3,29.09,North,360,1.3,5.8,63,-99.99,,,-99.99,WSDL version 420,2013-02-17 13:25:00,
2013-02-17 08:32:00,19.0,9.7,-100.00,NNE,23,2.2,6.3,63,-99.99,,,-99.99,WSDL version 420,2013-02-17 13:32:00,
2013-02-17 08:37:00,19.3,9.9,-100.00,North,353,1.7,6.5,62,-99.99,,,-99.99,WSDL version 420,2013-02-17 13:37:00,
2013-02-17 08:43:00,19.6,9.7,29.09,NNW,346,3.2,6.7,61,-99.99,,,-99.99,WSDL version 420,2013-02-17 13:43:00,
2013-02-17 08:49:00,19.6,9.5,-100.00,NNW,341,2.6,5.6,61,-99.99,,,-99.99,WSDL version 420,2013-02-17 13:49:00,
2013-02-17 08:55:00,19.6,9.5,29.09,North,357,2.5,5.4,61,-99.99,,,-99.99,WSDL version 420,2013-02-17 13:55:00,
2013-02-17 09:00:00,20.1,10.0,29.06,North,356,3.1,7.6,61,-99.99,,,-99.99,WSDL version 420,2013-02-17 14:00:00,
2013-02-17 09:06:00,20.3,10.1,29.06,NNE,23,2.3,7.6,61,-99.99,,,-99.99,WSDL version 420,2013-02-17 14:06:00,
2013-02-17 09:12:00,20.2,10.1,29.06,North,360,3.3,7.2,61,-99.99,,,-99.99,WSDL version 420,2013-02-17 14:12:00,
2013-02-17 09:18:00,20.0,8.8,29.09,NNW,338,4.5,9.2,57,-99.99,,,-99.99,WSDL version 420,2013-02-17 14:18:00,
2013-02-17 09:25:00,20.2,9.3,29.09,NNW,338,2.8,9.2,59,-99.99,,,-99.99,WSDL version 420,2013-02-17 14:25:00,
2013-02-17 09:31:00,20.7,9.7,-100.00,NNW,329,2.4,6.9,58,-99.99,,,-99.99,WSDL version 420,2013-02-17 14:31:00,
2013-02-17 09:37:00,20.6,9.1,-100.00,NW,321,4.0,6.9,56,-99.99,,,-99.99,WSDL version 420,2013-02-17 14:37:00,
2013-02-17 09:43:00,20.5,8.5,-100.00,NNE,23,4.5,8.5,55,-99.99,,,-99.99,WSDL version 420,2013-02-17 14:43:00,
2013-02-17 09:49:00,20.8,9.0,29.09,NW,326,3.6,8.5,56,-99.99,,,-99.99,WSDL version 420,2013-02-17 14:49:00,
2013-02-17 09:55:00,20.4,7.7,29.09,NNW,338,4.3,7.6,53,-99.99,,,-99.99,WSDL version 420,2013-02-17 14:55:00,
2013-02-17 10:01:00,21.6,8.7,29.09,North,354,2.8,7.6,53,-99.99,,,-99.99,WSDL version 420,2013-02-17 15:01:00,
2013-02-17 10:07:00,22.7,9.4,29.09,NE,36,4.1,6.3,52,-99.99,,,-99.99,WSDL version 420,2013-02-17 15:07:00,
2013-02-17 10:13:00,23.6,10.0,29.09,North,360,3.3,6.3,51,-99.99,,,-99.99,WSDL version 420,2013-02-17 15:13:00,
2013-02-17 10:18:00,24.4,10.2,-100.00,North,360,4.0,6.5,50,-99.99,,,-99.99,WSDL version 420,2013-02-17 15:18:00,
2013-02-17 10:24:00,23.7,8.8,29.09,North,351,4.1,6.5,48,-99.99,,,-99.99,WSDL version 420,2013-02-17 15:24:00,
2013-02-17 10:30:00,22.4,7.6,29.09,NNW,341,5.8,8.5,48,-99.99,,,-99.99,WSDL version 420,2013-02-17 15:30:00,
2013-02-17 10:36:00,22.6,7.7,29.09,NE,34,3.6,8.5,48,-99.99,,,-99.99,WSDL version 420,2013-02-17 15:36:00,
2013-02-17 10:41:00,23.3,8.3,29.09,North,360,4.5,7.8,48,-99.99,,,-99.99,WSDL version 420,2013-02-17 15:41:00,
2013-02-17 10:47:00,23.6,8.3,29.09,NNW,338,3.1,7.8,47,-99.99,,,-99.99,WSDL version 420,2013-02-17 15:47:00,
2013-02-17 10:59:00,23.7,7.9,29.09,North,354,4.6,10.7,46,-99.99,,,-99.99,WSDL version 420,2013-02-17 15:59:00,
2013-02-17 11:05:00,23.4,7.4,29.09,NNE,19,4.3,7.2,45,-99.99,,,-99.99,WSDL version 420,2013-02-17 16:05:00,
2013-02-17 11:11:00,23.2,7.4,29.09,North,360,2.7,7.4,46,-99.99,,,-99.99,WSDL version 420,2013-02-17 16:11:00,
2013-02-17 11:17:00,22.4,6.6,29.09,North,357,3.6,6.3,46,-99.99,,,-99.99,WSDL version 420,2013-02-17 16:17:00,
2013-02-17 11:26:00,21.6,6.3,29.09,North,11,4.1,5.8,47,-99.99,,,-99.99,WSDL version 420,2013-02-17 16:26:00,
2013-02-17 11:32:00,21.4,6.2,29.09,NNW,338,2.3,5.8,48,-99.99,,,-99.99,WSDL version 420,2013-02-17 16:32:00,
2013-02-17 11:40:00,22.6,7.7,29.09,North,356,3.1,7.4,48,-99.99,,,-99.99,WSDL version 420,2013-02-17 16:40:00,
2013-02-17 11:46:00,22.5,7.2,29.09,NNW,342,2.6,7.2,47,-99.99,,,-99.99,WSDL version 420,2013-02-17 16:46:00,
2013-02-17 11:51:00,21.7,6.4,29.09,NNE,23,4.1,8.1,47,-99.99,,,-99.99,WSDL version 420,2013-02-17 16:51:00,
2013-02-17 11:58:00,21.7,6.4,29.09,NNW,330,3.6,8.1,47,-99.99,,,-99.99,WSDL version 420,2013-02-17 16:58:00,
2013-02-17 12:07:00,23.4,8.4,-100.00,NNW,333,3.0,6.3,48,-99.99,,,-99.99,WSDL version 420,2013-02-17 17:07:00,
2013-02-17 12:13:00,23.5,8.2,29.06,North,360,3.6,6.5,47,-99.99,,,-99.99,WSDL version 420,2013-02-17 17:13:00,
2013-02-17 12:18:00,23.1,7.5,-100.00,NNW,329,4.2,8.1,47,-99.99,,,-99.99,WSDL version 420,2013-02-17 17:18:00,
2013-02-17 12:24:00,21.9,7.2,29.09,NNW,338,3.0,8.1,50,-99.99,,,-99.99,WSDL version 420,2013-02-17 17:24:00,
2013-02-17 12:30:00,24.3,10.8,-100.00,NNW,338,1.7,5.6,52,-99.99,,,-99.99,WSDL version 420,2013-02-17 17:30:00,
2013-02-17 12:44:00,23.5,8.9,29.09,NNW,338,3.5,6.3,49,-99.99,,,-99.99,WSDL version 420,2013-02-17 17:44:00,
2013-02-17 12:50:00,22.8,7.8,29.09,NW,319,3.4,9.2,47,-99.99,,,-99.99,WSDL version 420,2013-02-17 17:50:00,
2013-02-17 12:56:00,23.8,8.0,29.09,NNW,343,4.3,6.9,46,-99.99,,,-99.99,WSDL version 420,2013-02-17 17:56:00,
2013-02-17 13:01:00,27.1,10.6,29.09,NW,321,4.1,7.6,45,-99.99,,,-99.99,WSDL version 420,2013-02-17 18:01:00,
2013-02-17 13:08:00,27.1,9.7,-100.00,North,11,4.2,6.9,43,-99.99,,,-99.99,WSDL version 420,2013-02-17 18:08:00,
2013-02-17 13:15:00,28.9,10.4,-100.00,North,8,5.3,8.5,41,-99.99,,,-99.99,WSDL version 420,2013-02-17 18:15:00,
2013-02-17 13:21:00,27.1,8.5,29.06,NNW,344,5.1,8.5,41,-99.99,,,-99.99,WSDL version 420,2013-02-17 18:21:00,
2013-02-17 13:27:00,24.9,7.0,29.06,NNW,341,5.4,8.1,42,-99.99,,,-99.99,WSDL version 420,2013-02-17 18:27:00,
2013-02-17 13:34:00,25.9,8.2,29.09,North,11,4.4,7.8,42,-99.99,,,-99.99,WSDL version 420,2013-02-17 18:34:00,
2013-02-17 13:39:00,25.9,7.9,29.09,NNW,341,4.4,7.6,42,-99.99,,,-99.99,WSDL version 420,2013-02-17 18:39:00,
2013-02-17 13:45:00,27.1,8.4,29.09,NNW,334,5.1,10.3,40,-99.99,,,-99.99,WSDL version 420,2013-02-17 18:45:00,
2013-02-17 13:51:00,26.7,7.4,29.09,NNW,329,4.3,10.3,40,-99.99,,,-99.99,WSDL version 420,2013-02-17 18:51:00,
2013-02-17 13:57:00,23.9,5.4,29.09,North,350,3.7,10.3,41,-99.99,,,-99.99,WSDL version 420,2013-02-17 18:57:00,
2013-02-17 14:04:00,25.3,6.6,29.12,NNW,330,4.8,9.2,40,-99.99,,,-99.99,WSDL version 420,2013-02-17 19:04:00,
2013-02-17 14:10:00,24.4,6.3,29.12,North,353,4.7,10.3,41,-99.99,,,-99.99,WSDL version 420,2013-02-17 19:10:00,
2013-02-17 14:16:00,24.6,5.6,29.09,NNW,338,6.7,11.9,39,-99.99,,,-99.99,WSDL version 420,2013-02-17 19:16:00,
2013-02-17 14:24:00,25.9,6.6,29.09,NNW,344,5.3,8.7,39,-99.99,,,-99.99,WSDL version 420,2013-02-17 19:24:00,
2013-02-17 14:30:00,26.6,6.7,29.12,NNW,329,4.7,8.7,38,-99.99,,,-99.99,WSDL version 420,2013-02-17 19:30:00,
2013-02-17 14:35:00,26.4,6.4,29.12,NNW,335,5.3,8.1,37,-99.99,,,-99.99,WSDL version 420,2013-02-17 19:35:00,
2013-02-17 14:41:00,25.7,5.4,29.12,North,3,7.0,11.0,37,-99.99,,,-99.99,WSDL version 420,2013-02-17 19:41:00,
2013-02-17 14:48:00,24.3,4.1,29.12,North,349,4.7,11.0,37,-99.99,,,-99.99,WSDL version 420,2013-02-17 19:48:00,
2013-02-17 14:54:00,24.4,4.2,29.12,NNW,330,4.8,10.5,37,-99.99,,,-99.99,WSDL version 420,2013-02-17 19:54:00,
2013-02-17 15:00:00,23.8,3.7,-100.00,NNW,338,5.1,10.5,37,-99.99,,,-99.99,WSDL version 420,2013-02-17 20:00:00,
2013-02-17 15:06:00,22.8,2.2,29.12,NNW,332,6.5,10.7,36,-99.99,,,-99.99,WSDL version 420,2013-02-17 20:06:00,
2013-02-17 15:12:00,21.9,1.9,29.12,NW,326,5.9,7.6,37,-99.99,,,-99.99,WSDL version 420,2013-02-17 20:12:00,
2013-02-17 15:18:00,22.1,2.6,29.15,NW,308,5.3,8.7,38,-99.99,,,-99.99,WSDL version 420,2013-02-17 20:18:00,
2013-02-17 15:24:00,21.3,1.4,29.15,NW,323,7.9,12.3,37,-99.99,,,-99.99,WSDL version 420,2013-02-17 20:24:00,
2013-02-17 15:30:00,20.2,0.4,29.15,NNW,330,5.7,14.8,37,-99.99,,,-99.99,WSDL version 420,2013-02-17 20:30:00,
2013-02-17 15:36:00,19.2,-0.5,29.15,NW,315,5.8,14.8,37,-99.99,,,-99.99,WSDL version 420,2013-02-17 20:36:00,
2013-02-17 15:42:00,18.3,-0.9,29.15,NNW,330,6.7,10.1,38,-99.99,,,-99.99,WSDL version 420,2013-02-17 20:42:00,
2013-02-17 15:53:00,17.6,-1.0,29.15,NNW,333,6.0,12.8,39,-99.99,,,-99.99,WSDL version 420,2013-02-17 20:53:00,
2013-02-17 15:58:00,17.2,-1.2,29.15,NNW,344,7.3,12.8,40,-99.99,,,-99.99,WSDL version 420,2013-02-17 20:58:00,
2013-02-17 16:04:00,16.7,-1.4,29.15,NNW,338,6.6,10.7,40,-99.99,,,-99.99,WSDL version 420,2013-02-17 21:04:00,
2013-02-17 16:11:00,16.7,-0.9,29.15,NNW,343,4.5,12.8,41,-99.99,,,-99.99,WSDL version 420,2013-02-17 21:11:00,
2013-02-17 16:19:00,16.8,-0.8,29.15,NNW,338,3.4,5.8,41,-99.99,,,-99.99,WSDL version 420,2013-02-17 21:19:00,
2013-02-17 16:33:00,15.3,-1.3,29.15,North,11,5.6,12.8,43,-99.99,,,-99.99,WSDL version 420,2013-02-17 21:33:00,
2013-02-17 16:39:00,15.2,-1.1,29.15,NNW,334,3.3,6.3,44,-99.99,,,-99.99,WSDL version 420,2013-02-17 21:39:00,
2013-02-17 16:44:00,14.9,-1.2,29.15,NNE,14,3.4,7.8,44,-99.99,,,-99.99,WSDL version 420,2013-02-17 21:44:00,
2013-02-17 16:50:00,14.5,-1.6,-100.00,North,360,6.5,13.2,44,-99.99,,,-99.99,WSDL version 420,2013-02-17 21:50:00,
2013-02-17 16:56:00,14.3,-1.8,29.15,NNW,329,4.8,13.2,44,-99.99,,,-99.99,WSDL version 420,2013-02-17 21:56:00,
2013-02-17 17:01:00,14.2,-1.9,29.15,North,356,5.1,13.2,44,-99.99,,,-99.99,WSDL version 420,2013-02-17 22:01:00,
2013-02-17 17:07:00,14.1,-2.0,29.15,NW,315,3.4,10.7,44,-99.99,,,-99.99,WSDL version 420,2013-02-17 22:07:00,
2013-02-17 17:16:00,13.7,-1.9,29.15,NNW,334,5.3,8.7,45,-99.99,,,-99.99,WSDL version 420,2013-02-17 22:16:00,
2013-02-17 17:22:00,13.6,-2.0,29.15,North,354,4.0,8.7,45,-99.99,,,-99.99,WSDL version 420,2013-02-17 22:22:00,
2013-02-17 17:27:00,13.6,-2.0,-100.00,NNW,328,3.7,8.5,45,-99.99,,,-99.99,WSDL version 420,2013-02-17 22:27:00,
2013-02-17 17:33:00,13.6,-2.0,-100.00,NNW,345,3.2,7.8,45,-99.99,,,-99.99,WSDL version 420,2013-02-17 22:33:00,
2013-02-17 17:39:00,13.6,-2.0,29.15,NNW,341,3.8,8.1,45,-99.99,,,-99.99,WSDL version 420,2013-02-17 22:39:00,
2013-02-17 17:45:00,13.6,-2.0,29.15,NNW,345,6.0,9.8,45,-99.99,,,-99.99,WSDL version 420,2013-02-17 22:45:00,
2013-02-17 17:51:00,13.6,-2.0,29.15,NNW,343,4.0,9.8,45,-99.99,,,-99.99,WSDL version 420,2013-02-17 22:51:00,
2013-02-17 17:58:00,13.6,-2.0,29.15,North,357,5.5,11.2,45,-99.99,,,-99.99,WSDL version 420,2013-02-17 22:58:00,
2013-02-17 18:04:00,13.6,-2.1,29.15,North,349,5.8,12.8,45,-99.99,,,-99.99,WSDL version 420,2013-02-17 23:04:00,
2013-02-17 18:10:00,13.5,-2.2,29.15,NNW,338,3.7,12.8,45,-99.99,,,-99.99,WSDL version 420,2013-02-17 23:10:00,
2013-02-17 18:17:00,13.4,-2.2,29.15,NNW,340,4.2,9.6,45,-99.99,,,-99.99,WSDL version 420,2013-02-17 23:17:00,
2013-02-17 18:23:00,13.3,-2.3,29.15,NNW,334,3.2,9.6,45,-99.99,,,-99.99,WSDL version 420,2013-02-17 23:23:00,
2013-02-17 18:30:00,13.0,-2.6,29.15,NW,326,4.5,8.1,45,-99.99,,,-99.99,WSDL version 420,2013-02-17 23:30:00,
2013-02-17 18:36:00,12.9,-2.7,29.15,NW,315,4.2,8.5,45,-99.99,,,-99.99,WSDL version 420,2013-02-17 23:36:00,
2013-02-17 18:42:00,12.7,-2.8,29.15,NNW,338,3.5,8.5,45,-99.99,,,-99.99,WSDL version 420,2013-02-17 23:42:00,
2013-02-17 18:48:00,12.7,-2.8,-100.00,NNW,330,3.7,7.4,45,-99.99,,,-99.99,WSDL version 420,2013-02-17 23:48:00,
2013-02-17 18:54:00,12.7,-2.8,29.15,North,350,2.9,7.4,45,-99.99,,,-99.99,WSDL version 420,2013-02-17 23:54:00,
2013-02-17 19:00:00,12.7,-2.8,29.15,NW,325,4.5,6.0,45,-99.99,,,-99.99,WSDL version 420,2013-02-18 00:00:00,
2013-02-17 19:06:00,12.7,-2.8,29.15,NNW,343,3.5,6.5,45,-99.99,,,-99.99,WSDL version 420,2013-02-18 00:06:00,
2013-02-17 19:12:00,12.7,-2.8,29.15,NNW,331,2.9,6.5,45,-99.99,,,-99.99,WSDL version 420,2013-02-18 00:12:00,
2013-02-17 19:18:00,12.7,-2.8,29.15,NNW,338,3.5,6.5,45,-99.99,,,-99.99,WSDL version 420,2013-02-18 00:18:00,
2013-02-17 19:25:00,12.7,-2.8,29.15,NW,320,5.0,6.5,45,-99.99,,,-99.99,WSDL version 420,2013-02-18 00:25:00,
2013-02-17 19:31:00,12.8,-2.8,29.18,NNW,338,4.0,8.5,45,-99.99,,,-99.99,WSDL version 420,2013-02-18 00:31:00,
2013-02-17 19:37:00,12.9,-2.7,29.18,NNW,335,3.8,8.5,45,-99.99,,,-99.99,WSDL version 420,2013-02-18 00:37:00,
2013-02-17 19:43:00,12.9,-2.7,29.18,NNW,347,4.9,8.1,45,-99.99,,,-99.99,WSDL version 420,2013-02-18 00:43:00,
2013-02-17 19:49:00,12.9,-2.7,29.18,NW,315,3.4,8.5,45,-99.99,,,-99.99,WSDL version 420,2013-02-18 00:49:00,
2013-02-17 19:55:00,12.9,-2.7,29.18,NNW,338,2.7,6.3,45,-99.99,,,-99.99,WSDL version 420,2013-02-18 00:55:00,
2013-02-17 20:01:00,12.9,-2.7,29.21,NW,326,4.1,8.5,45,-99.99,,,-99.99,WSDL version 420,2013-02-18 01:01:00,
2013-02-17 20:07:00,12.9,-2.7,29.21,NNW,338,3.7,8.5,45,-99.99,,,-99.99,WSDL version 420,2013-02-18 01:07:00,
2013-02-17 20:13:00,12.9,-2.7,29.21,North,356,3.6,6.5,45,-99.99,,,-99.99,WSDL version 420,2013-02-18 01:13:00,
2013-02-17 20:19:00,12.9,-2.7,29.21,NNW,338,3.9,10.7,45,-99.99,,,-99.99,WSDL version 420,2013-02-18 01:19:00,
2013-02-17 20:25:00,12.9,-2.7,29.21,NNW,338,3.2,10.7,45,-99.99,,,-99.99,WSDL version 420,2013-02-18 01:25:00,
2013-02-17 20:30:00,12.9,-2.7,29.21,North,349,3.9,7.4,45,-99.99,,,-99.99,WSDL version 420,2013-02-18 01:30:00,
2013-02-17 20:36:00,12.7,-2.8,29.21,North,354,4.5,7.4,45,-99.99,,,-99.99,WSDL version 420,2013-02-18 01:36:00,
2013-02-17 20:42:00,12.7,-2.8,29.21,North,4,5.2,10.3,45,-99.99,,,-99.99,WSDL version 420,2013-02-18 01:42:00,
2013-02-17 20:48:00,12.7,-2.8,29.21,NNW,338,2.9,10.7,45,-99.99,,,-99.99,WSDL version 420,2013-02-18 01:48:00,
2013-02-17 20:55:00,12.6,-3.0,29.21,NNW,338,5.2,10.7,45,-99.99,,,-99.99,WSDL version 420,2013-02-18 01:55:00,
2013-02-17 21:01:00,12.7,-2.8,29.21,North,8,3.8,10.7,45,-99.99,,,-99.99,WSDL version 420,2013-02-18 02:01:00,
2013-02-17 21:07:00,12.6,-2.9,29.21,NNW,333,3.8,7.4,45,-99.99,,,-99.99,WSDL version 420,2013-02-18 02:07:00,
2013-02-17 21:13:00,12.6,-3.0,29.21,North,349,5.4,7.8,45,-99.99,,,-99.99,WSDL version 420,2013-02-18 02:13:00,
2013-02-17 21:19:00,12.6,-3.0,29.21,NNW,338,4.2,7.8,45,-99.99,,,-99.99,WSDL version 420,2013-02-18 02:19:00,
2013-02-17 21:24:00,12.6,-3.0,29.21,NNW,338,4.3,7.4,45,-99.99,,,-99.99,WSDL version 420,2013-02-18 02:24:00,
2013-02-17 21:31:00,12.4,-3.2,29.23,North,357,4.2,10.5,45,-99.99,,,-99.99,WSDL version 420,2013-02-18 02:31:00,
2013-02-17 21:37:00,12.4,-3.2,29.23,NNW,338,3.3,10.5,45,-99.99,,,-99.99,WSDL version 420,2013-02-18 02:37:00,
2013-02-17 21:43:00,12.3,-3.3,29.23,NNW,338,2.7,6.0,45,-99.99,,,-99.99,WSDL version 420,2013-02-18 02:43:00,
2013-02-17 21:49:00,12.2,-3.3,29.23,North,352,4.8,6.0,45,-99.99,,,-99.99,WSDL version 420,2013-02-18 02:49:00,
2013-02-17 21:56:00,12.2,-3.3,29.23,NNW,331,3.6,7.4,45,-99.99,,,-99.99,WSDL version 420,2013-02-18 02:56:00,
2013-02-17 22:02:00,12.2,-3.3,29.26,NNW,338,3.5,7.6,45,-99.99,,,-99.99,WSDL version 420,2013-02-18 03:02:00,
2013-02-17 22:12:00,12.2,-3.3,29.26,NNW,338,2.5,6.7,45,-99.99,,,-99.99,WSDL version 420,2013-02-18 03:12:00,
2013-02-17 22:18:00,12.2,-3.3,29.23,North,349,3.8,7.2,45,-99.99,,,-99.99,WSDL version 420,2013-02-18 03:18:00,
2013-02-17 22:24:00,12.4,-3.2,29.23,NNW,338,4.3,5.8,45,-99.99,,,-99.99,WSDL version 420,2013-02-18 03:24:00,
2013-02-17 22:30:00,12.2,-3.3,29.23,NNW,338,4.7,7.4,45,-99.99,,,-99.99,WSDL version 420,2013-02-18 03:30:00,
2013-02-17 22:37:00,12.2,-3.3,29.23,NW,320,3.5,6.5,45,-99.99,,,-99.99,WSDL version 420,2013-02-18 03:37:00,
2013-02-17 22:43:00,12.2,-3.3,29.26,NNW,332,4.1,12.3,45,-99.99,,,-99.99,WSDL version 420,2013-02-18 03:43:00,
2013-02-17 22:49:00,12.2,-3.3,29.26,NNW,345,3.9,10.3,45,-99.99,,,-99.99,WSDL version 420,2013-02-18 03:49:00,
2013-02-17 22:55:00,12.2,-3.3,29.26,NNW,328,3.5,7.4,45,-99.99,,,-99.99,WSDL version 420,2013-02-18 03:55:00,
2013-02-17 23:01:00,12.2,-3.3,29.26,NNW,343,2.9,6.5,45,-99.99,,,-99.99,WSDL version 420,2013-02-18 04:01:00,
2013-02-17 23:06:00,12.2,-3.3,29.26,North,8,3.8,6.0,45,-99.99,,,-99.99,WSDL version 420,2013-02-18 04:06:00,
2013-02-17 23:12:00,12.2,-3.3,29.26,NNW,338,4.2,7.8,45,-99.99,,,-99.99,WSDL version 420,2013-02-18 04:12:00,
2013-02-17 23:18:00,12.2,-3.3,-100.00,NW,323,3.8,7.6,45,-99.99,,,-99.99,WSDL version 420,2013-02-18 04:18:00,
2013-02-17 23:24:00,12.2,-3.3,29.26,NW,315,2.9,7.6,45,-99.99,,,-99.99,WSDL version 420,2013-02-18 04:24:00,
2013-02-17 23:30:00,12.2,-3.3,29.23,NNW,343,4.0,6.0,45,-99.99,,,-99.99,WSDL version 420,2013-02-18 04:30:00,
2013-02-17 23:36:00,12.0,-3.5,29.23,North,357,5.0,9.4,45,-99.99,,,-99.99,WSDL version 420,2013-02-18 04:36:00,
2013-02-17 23:42:00,12.0,-3.5,29.23,North,356,4.8,9.4,45,-99.99,,,-99.99,WSDL version 420,2013-02-18 04:42:00,
2013-02-17 23:48:00,11.9,-3.6,29.26,NW,326,3.9,7.8,45,-99.99,,,-99.99,WSDL version 420,2013-02-18 04:48:00,
2013-02-17 23:54:00,11.8,-3.7,29.26,NNW,338,3.6,8.1,45,-99.99,,,-99.99,WSDL version 420,2013-02-18 04:54:00,